User: anonymous   Login
Location: Anjeux
(47.8815°N, 6.2076°E)
Time: 19:19:13
(UTC+00:00)
Language:

AAUSAT CUBESAT 2 - Orbit

View from above orbital plane
View from above orbital plane
View from above satellite
View from above satellite

Ground track
Ground track

The orbit data is extracted from the following two-line orbital elements,

1 32788U 08021F   21340.95001346  .00000814  00000-0  77412-4 0  9995
2 32788  97.5181 328.5346 0012926  54.2603 305.9819 14.96000028739747
Epoch (UTC): 06 December 2021 22:48:01
Eccentricity: 0.0012926
inclination: 97.5181°
perigee height: 570 km
apogee height: 588 km
right ascension of ascending node: 328.5346°
argument of perigee: 54.2603°
revolutions per day: 14.96000028
mean anomaly at epoch: 305.9819°
orbit number at epoch: 73974

The dashed part of the orbit path shows where the satellite is in the earth's shadow,  

DLR